[[{"header":{"parameterUnit":"m.s-1","parameterCategory":1,"la1":30.2991,"la2":30.254,"lo1":-89.0895,"lo2":-89.0444,"dy":0.0017,"dx":0.0017,"nx":28,"ny":28,"refTime":"2024-09-27T21:00:00:Z","depth":0,"parameterNumber":2,"parameterNumberName":"U-component_of_WINDS"},"data":[0,0,0,0,0,0,0,0,0,0,0,0,0,0,0,0,0,0,0,0,0,0,0,0,0,0,0,0,0,0,0,0,0,0,0,0,0,0,0,0,0,0,0,0,0,0,0,0,0,0,0,0,0,0,0,0,0,0,6.7068,6.7069,0,6.7158,6.7159,6.716,6.7093,6.709,6.7087,6.7084,6.7177,6.7182,6.7188,0,0,0,0,0,0,0,0,0,0,0,0,0,6.684,6.6845,6.7068,6.7069,6.707,6.7158,6.7159,6.716,6.7093,6.709,6.7086,6.7083,6.7176,6.7182,6.7188,0,0,0,0,0,0,0,0,0,0,0,0,0,6.6936,6.6846,6.7068,6.7047,6.7046,6.7158,6.7159,6.7161,6.7094,6.709,6.7085,6.7081,6.7174,6.7181,6.7189,6.7325,0,0,6.7213,6.7216,0,0,0,0,0,0,0,0,6.693,6.6944,6.7049,6.7049,6.7048,6.711,6.7113,6.7216,6.7095,6.7076,6.7084,6.7079,6.7158,6.7167,6.7194,6.733,6.7334,6.7213,6.7218,6.7222,6.7224,0,0,0,0,0,0,0,6.6924,6.694,6.7104,6.7051,6.705,6.7034,6.7043,6.7132,6.7141,6.7077,6.7073,6.7084,6.7157,6.7186,6.7195,6.7335,6.7213,6.722,6.7225,6.7228,6.7589,6.7594,0,0,0,0,0,0,6.6919,6.6935,6.7101,6.7106,6.6977,6.7042,6.7052,6.7094,6.714,6.7142,6.7088,6.7081,6.7175,6.7186,6.7198,6.7363,6.7221,6.7229,6.7233,6.7585,6.759,6.7596,0,0,0,0,0,0,6.6914,6.6934,6.7097,6.7019,6.7039,6.7051,6.7099,6.7098,6.7127,6.7148,6.7149,6.7116,6.7172,6.7187,6.7295,6.7365,6.7232,6.7239,6.7579,6.7586,6.7593,6.7691,0,0,0,0,0,0,6.6908,6.6933,6.6984,6.7021,6.7043,6.7191,6.7103,6.7103,6.7141,6.7133,6.7174,6.7177,6.717,6.7283,6.7302,6.7373,6.7246,6.7573,6.7582,6.7591,6.7682,6.7701,6.7717,0,0,0,0,0,6.69,6.7008,6.6987,6.7008,6.7108,6.7196,6.7208,6.7198,6.7147,6.7199,6.7212,6.7176,6.7354,6.7295,6.7316,6.739,6.7568,6.7579,6.759,6.7674,6.7697,6.7717,0,0,0,0,0,0,6.698,6.7013,6.699,6.7113,6.7152,6.7184,6.7249,6.7223,6.7277,6.7267,6.7252,6.7262,6.7375,6.7393,6.7326,6.7525,6.7453,6.7469,6.7509,6.7532,6.7549,6.7543,6.7252,0,0,0,0,0,6.7011,6.708,6.7105,6.7211,6.7232,6.7238,6.7275,6.7264,6.7304,6.732,6.7341,6.7382,6.7447,6.749,6.7551,6.7684,6.7693,6.7745,6.7763,6.7778,6.7792,6.7865,6.7889,6.7632,6.7632,6.7632,0,0,6.7078,6.7104,6.7148,6.7228,6.7257,6.7329,6.7252,6.7331,6.7384,6.7332,6.7435,6.7452,6.7496,6.7618,6.7672,6.7636,6.7865,6.7792,6.7803,6.781,6.7879,6.7904,6.7925,6.764,6.7638,6.7637,0,0,6.7236,6.7262,6.7355,6.7385,6.743,6.7434,6.7456,6.7493,6.7502,6.7605,6.7568,6.7632,6.7744,6.7778,6.7809,6.7982,6.7951,6.8003,6.8096,6.8168,6.8188,6.8206,6.8269,6.8292,6.8016,6.8017,6.8017,0,6.7313,6.7419,6.7405,6.7488,6.7524,6.7481,6.7575,6.7605,6.7668,6.7695,6.7654,6.7795,6.7822,6.7951,6.7994,6.802,6.8046,6.7998,6.8186,6.8204,6.8221,6.8281,6.8305,6.8023,6.8022,6.8021,6.8021,0,6.7513,6.7587,6.7656,6.7719,6.7763,6.7851,6.7851,6.7898,6.7883,6.7891,6.7997,6.8028,6.8095,6.8125,6.8111,6.8253,6.823,6.8188,6.8115,6.8252,6.8308,6.8331,6.8031,6.8029,6.8027,6.8026,0,0,6.7723,6.7777,6.7803,6.7832,6.7879,6.7936,6.8023,6.8089,6.813,6.8175,6.8248,6.8345,6.8307,6.8343,6.8333,6.8395,6.8533,6.8346,6.8347,6.8381,6.8693,6.8725,6.8752,6.8512,6.8516,6.852,6.869,0,6.7885,6.8035,6.8026,6.8168,6.8237,6.8197,6.8273,6.831,6.8321,6.8382,6.8393,6.8462,6.8406,6.8428,6.8488,6.8503,6.8595,6.8491,6.8581,6.8584,6.8572,6.8781,6.8815,6.8974,6.8712,6.8715,6.8718,0,6.8094,6.8147,6.8295,6.8333,6.8362,6.843,6.8491,6.8549,6.8591,6.8594,6.8636,6.8616,6.8704,6.8629,6.8751,6.868,6.8717,6.873,6.8736,6.8744,6.866,6.8797,6.9024,6.9049,6.8752,6.8749,6.8747,0,6.8235,6.8343,6.8446,6.8471,6.8518,6.8567,6.8589,6.8627,6.8667,6.872,6.8747,6.881,6.8844,6.8894,6.8891,6.8836,6.9017,6.894,6.9023,6.9023,6.9063,6.9061,6.9301,6.9085,6.9085,6.9084,6.9084,0,6.8417,6.851,6.851,6.8574,6.8677,6.8666,6.8769,6.8785,6.882,6.8887,6.8856,6.892,6.8912,6.8977,6.8975,6.9078,6.9093,6.9099,6.9098,6.9103,6.9103,6.9127,6.9117,6.909,6.9089,6.9088,6.9087,0,6.8592,6.8596,6.8706,6.8741,6.8752,6.8827,6.8858,6.8919,6.8926,6.9012,6.9031,6.9044,6.9118,6.912,6.9206,6.9205,6.9331,6.9316,6.9317,6.9314,6.9397,6.939,6.9662,6.9698,6.9458,6.946,6.9462,0,6.8709,6.8779,6.8823,6.8865,6.889,6.8959,6.9001,6.8993,6.9037,6.9092,6.9147,6.9218,6.9275,6.9396,6.9413,6.9479,6.9467,6.9558,6.9476,6.948,6.947,6.9466,6.9474,6.9574,6.9577,6.9579,6.958,0,6.8916,6.8915,6.8976,6.9038,6.9089,6.9138,6.9183,6.922,6.9217,6.9269,6.9345,6.9389,6.9476,6.9548,6.9612,6.9635,6.9609,6.9606,6.9629,6.9635,6.9633,6.9637,6.9361,6.96,6.9598,6.9596,6.9595,6.9595,6.9067,6.9128,6.9169,6.9238,6.9271,6.9315,6.9374,6.939,6.9452,6.9523,6.9514,6.9599,6.9641,6.9724,6.9753,6.9819,6.9788,6.9821,6.9829,6.9838,6.9848,6.9621,6.9831,6.983,6.983,6.9829,6.9829,0,6.9274,6.9298,6.9362,6.9427,6.9482,6.9451,6.95,6.9548,6.9623,6.9664,6.9721,6.9809,6.9878,6.9902,6.997,7.0019,7.0008,7.0037,7.0034,7.004,6.9871,6.9845,7.0045,7.0045,7.0045,7.0045,7.0044,7.0044,6.9389,6.9492,6.9495,6.9615,6.9639,6.9721,6.9752,6.9792,6.9825,6.9925,6.9983,6.9997,7.0031,7.0102,7.0165,7.017,7.0197,7.0232,7.0232,7.0074,7.0052,7.0031,7.0007,7.0237,7.0238,7.0396,7.0397,7.0398]},{"header":{"parameterUnit":"m.s-1","parameterCategory":1,"la1":30.2991,"la2":30.254,"lo1":-89.0895,"lo2":-89.0444,"dy":0.0017,"dx":0.0017,"nx":28,"ny":28,"refTime":"2024-09-27T21:00:00:Z","depth":0,"parameterNumber":3,"parameterNumberName":"V-component_of_WINDS"},"data":[0,0,0,0,0,0,0,0,0,0,0,0,0,0,0,0,0,0,0,0,0,0,0,0,0,0,0,0,0,0,0,0,0,0,0,0,0,0,0,0,0,0,0,0,0,0,0,0,0,0,0,0,0,0,0,0,0,0,0.7241,0.7242,0,0.7309,0.731,0.7311,0.7313,0.7312,0.7311,0.731,0.7383,0.7385,0.7388,0,0,0,0,0,0,0,0,0,0,0,0,0,0.7114,0.7117,0.7241,0.7242,0.7243,0.7309,0.731,0.7311,0.7313,0.7312,0.7311,0.731,0.7382,0.7385,0.7388,0,0,0,0,0,0,0,0,0,0,0,0,0,0.7175,0.7117,0.7241,0.7252,0.7254,0.7309,0.731,0.7311,0.7313,0.7312,0.7311,0.731,0.7381,0.7385,0.7389,0.7439,0,0,0.7401,0.7403,0,0,0,0,0,0,0,0,0.7171,0.7179,0.7249,0.7251,0.7253,0.7301,0.7292,0.7354,0.7314,0.7291,0.731,0.7309,0.7357,0.7363,0.7378,0.7442,0.7445,0.7401,0.7404,0.7406,0.7407,0,0,0,0,0,0,0,0.7167,0.7176,0.7268,0.725,0.7253,0.7254,0.7261,0.7304,0.733,0.7293,0.7293,0.7301,0.7358,0.7374,0.738,0.7446,0.7401,0.7405,0.7407,0.7409,0.7554,0.7555,0,0,0,0,0,0,0.716,0.7173,0.7266,0.727,0.7208,0.7257,0.7265,0.7287,0.733,0.7335,0.7302,0.7301,0.7368,0.7375,0.7383,0.7443,0.7406,0.7409,0.7412,0.7552,0.7554,0.7556,0,0,0,0,0,0,0.7158,0.7169,0.7263,0.7222,0.7234,0.7261,0.7285,0.7289,0.7306,0.7336,0.7341,0.7314,0.7367,0.7377,0.7424,0.7446,0.7411,0.7415,0.7551,0.7553,0.7555,0.7566,0,0,0,0,0,0,0.7154,0.7168,0.7187,0.7222,0.7236,0.7304,0.7287,0.7291,0.7313,0.7312,0.7349,0.7354,0.7367,0.7418,0.7428,0.7451,0.7418,0.7549,0.7552,0.7554,0.7564,0.7568,0.7572,0,0,0,0,0,0.7149,0.7188,0.7188,0.7199,0.726,0.7305,0.7313,0.7326,0.7314,0.7334,0.7353,0.7353,0.7442,0.7423,0.7435,0.7459,0.7548,0.7551,0.7554,0.7562,0.7567,0.7572,0,0,0,0,0,0,0.7156,0.7193,0.7193,0.7244,0.7271,0.7305,0.733,0.7332,0.7363,0.7361,0.7377,0.7386,0.7433,0.745,0.7429,0.7509,0.7493,0.7499,0.7495,0.7501,0.7505,0.7499,0.7421,0,0,0,0,0,0.7163,0.7196,0.7226,0.7269,0.7282,0.7304,0.7324,0.7331,0.736,0.7372,0.7395,0.7424,0.7458,0.748,0.7514,0.7566,0.7574,0.7588,0.7592,0.7595,0.76,0.7628,0.7634,0.7566,0.7566,0.7566,0,0,0.7179,0.7203,0.7223,0.727,0.7292,0.7326,0.7314,0.735,0.7375,0.7378,0.7424,0.7442,0.7475,0.7524,0.7547,0.7541,0.762,0.7599,0.7602,0.7605,0.7632,0.7638,0.7644,0.7568,0.7568,0.7567,0,0,0.7224,0.7246,0.7282,0.7304,0.7337,0.7351,0.736,0.7393,0.7405,0.7451,0.7453,0.7484,0.7543,0.7566,0.7585,0.7637,0.7638,0.7648,0.7669,0.7696,0.7702,0.7706,0.7724,0.7731,0.7653,0.7653,0.7653,0,0.7239,0.7289,0.7302,0.7337,0.7358,0.7361,0.7398,0.7419,0.7462,0.7476,0.7468,0.754,0.7563,0.7618,0.763,0.7646,0.7656,0.7644,0.77,0.7705,0.7709,0.7727,0.7734,0.7654,0.7653,0.7653,0.7653,0,0.7306,0.7341,0.7367,0.7406,0.743,0.7466,0.7484,0.7507,0.7512,0.7527,0.7573,0.76,0.7638,0.7652,0.7658,0.7707,0.7702,0.7696,0.7681,0.7717,0.7733,0.774,0.7655,0.7654,0.7654,0.7654,0,0,0.7358,0.7403,0.7412,0.7429,0.7465,0.7492,0.7529,0.7565,0.7584,0.7613,0.7643,0.7692,0.7687,0.7709,0.7718,0.7742,0.778,0.7733,0.7734,0.774,0.7835,0.7838,0.7846,0.7781,0.7782,0.7783,0.7832,0,0.7407,0.747,0.7482,0.7538,0.757,0.7572,0.7604,0.763,0.7644,0.7674,0.769,0.7724,0.7715,0.7728,0.7752,0.777,0.7799,0.7767,0.7809,0.7811,0.7801,0.7855,0.7859,0.7903,0.7838,0.784,0.784,0,0.7472,0.7501,0.756,0.759,0.7604,0.7632,0.7666,0.7694,0.7722,0.7731,0.7755,0.7761,0.7798,0.7781,0.7833,0.7811,0.7829,0.7841,0.7843,0.7847,0.7828,0.786,0.7918,0.7925,0.7851,0.785,0.7849,0,0.7503,0.7557,0.7599,0.7614,0.765,0.767,0.7686,0.7714,0.7734,0.7764,0.7777,0.7811,0.783,0.7856,0.787,0.7857,0.7921,0.7906,0.793,0.7929,0.7943,0.7942,0.8005,0.7955,0.7955,0.7955,0.7955,0,0.7556,0.7591,0.7613,0.7639,0.7678,0.7691,0.7731,0.7747,0.7771,0.78,0.7805,0.7832,0.7849,0.7879,0.7891,0.7931,0.794,0.7948,0.7951,0.7948,0.7946,0.796,0.7957,0.7957,0.7956,0.7956,0.7956,0,0.7597,0.7613,0.7658,0.7689,0.7697,0.7725,0.7752,0.7777,0.7791,0.7827,0.7837,0.7859,0.7894,0.7911,0.7955,0.7962,0.8009,0.801,0.7998,0.7999,0.8022,0.8019,0.8095,0.8105,0.805,0.805,0.8051,0,0.7629,0.7657,0.769,0.7709,0.7725,0.7756,0.7777,0.7791,0.7812,0.7846,0.7867,0.7902,0.793,0.7986,0.8007,0.804,0.8041,0.8065,0.8046,0.8042,0.8041,0.8039,0.8041,0.8069,0.8069,0.807,0.807,0,0.7685,0.7691,0.772,0.7752,0.7776,0.7802,0.7828,0.7843,0.7861,0.7885,0.792,0.7942,0.7986,0.802,0.8055,0.8072,0.8074,0.8076,0.8083,0.808,0.8072,0.8076,0.8007,0.8074,0.8074,0.8073,0.8073,0.8073,0.7722,0.7746,0.7773,0.7805,0.7825,0.7849,0.7873,0.789,0.7919,0.7955,0.7962,0.7999,0.8026,0.8072,0.809,0.812,0.8114,0.8125,0.8128,0.813,0.8131,0.8067,0.8126,0.8126,0.8126,0.8126,0.8126,0,0.7777,0.7794,0.7823,0.7858,0.7883,0.7882,0.791,0.7931,0.7964,0.7989,0.8016,0.8056,0.8089,0.8112,0.8145,0.8165,0.8166,0.8173,0.8171,0.8175,0.8134,0.8124,0.8171,0.8171,0.8171,0.8171,0.8171,0.8171,0.7809,0.7849,0.7858,0.7908,0.7925,0.796,0.7976,0.7998,0.8017,0.8062,0.8089,0.8103,0.8127,0.8162,0.8192,0.8198,0.821,0.8216,0.8222,0.8183,0.8178,0.8174,0.8164,0.8219,0.8219,0.826,0.8261,0.8261]}]]